EW5004 Weather Reports


Display with metric or nautical units.
time (UTC)temp
F
wind
direction
speed
MPH
gust
MPH
rain 1hr
in
rain 24hr
in
rain mn
in
humidity
%
barometer
mb
20260903080049 68 231 3.0 5.0 0.00 0.00 0.00 100 1012.6
20260903074531 68 223 2.0 7.0 0.00 0.00 0.00 100 1012.8
20260903074501 68 212 2.0 7.0 0.00 0.00 0.00 100 1012.7
20260903073030 68 261 3.0 7.0 0.00 0.00 0.00 100 1012.4
20260903071522 69 229 1.0 6.0 0.00 0.00 0.00 100 1012.5
20260903070019 69 273 4.0 10.0 0.00 0.00 0.00 100 1012.0
20260903064513 70 246 2.0 6.0 0.00 0.00 0.00 100 1012.0
20260903063008 70 204 3.0 7.0 0.00 0.00 0.00 100 1012.4
20260903061512 70 279 4.0 8.0 0.00 0.00 0.00 100 1014.3
20260903060100 70 234 2.0 6.0 0.00 0.00 0.00 100 1013.0
20260903054604 70 249 2.0 5.0 0.00 0.00 0.00 100 1013.1
20260903053058 70 203 0.0 3.0 0.00 0.00 0.00 100 1013.6
20260903051546 70 203 0.0 5.0 0.00 0.00 0.00 100 1013.6
20260903050036 70 245 1.0 6.0 0.00 0.00 0.00 100 1013.3
20260903044537 70 214 3.0 14.0 0.00 0.00 0.00 100 1013.6
20260903043030 71 139 10.0 15.0 0.00 0.00 0.00 100 1013.5
20260903041523 71 171 13.0 22.0 0.00 0.00 0.00 100 1013.0
20260903040018 70 130 6.0 11.0 0.00 0.00 0.00 100 1013.4
20260903034514 70 180 2.0 5.0 0.00 0.00 0.00 100 1012.0
20260903033008 70 208 2.0 6.0 0.00 0.00 0.00 100 1011.8
20260903031505 70 178 3.0 9.0 0.00 0.00 0.00 100 1011.8
20260903024556 70 212 3.0 7.0 0.00 0.00 0.00 100 1012.9
20260903023051 71 144 7.0 12.0 0.00 0.00 0.00 100 1013.9
20260903021547 74 153 5.0 21.0 0.00 0.00 0.00 17 1014.0
20260903020042 78 119 7.0 12.0 0.00 0.00 0.00 2 1013.9
20260903014538 77 257 3.0 12.0 0.00 0.00 0.00 100 1012.8
20260903013038 78 236 1.0 6.0 0.00 0.00 0.00 100 1012.3
20260903011529 78 242 2.0 7.0 0.00 0.00 0.00 100 1012.0
20260903010025 79 244 4.0 9.0 0.00 0.00 0.00 100 1011.8
20260903004521 79 254 2.0 7.0 0.00 0.00 0.00 100 1012.1
20260903003015 79 248 1.0 4.0 0.00 0.00 0.00 1 1012.0
20260903001511 80 244 2.0 6.0 0.00 0.00 0.00 3 1011.8
20260903000017 80 267 1.0 5.0 0.00 0.00 0.00 6 1012.1
20260902234509 81 234 4.0 7.0 0.00 0.00 0.00 11 1012.1
20260902233058 82 248 1.0 7.0 0.00 0.00 0.00 16 1012.1
20260902231554 83 242 1.0 5.0 0.00 0.00 0.00 23 1012.0
20260902230051 84 248 3.0 9.0 0.00 0.00 0.00 31 1011.7
20260902224553 86 288 4.0 10.0 0.00 0.00 0.00 35 1011.5
20260902223041 87 270 2.0 8.0 0.00 0.00 0.00 41 1011.6
20260902221543 90 266 1.0 3.0 0.00 0.00 0.00 50 1011.8
20260902220039 90 292 2.0 6.0 0.00 0.00 0.00 54 1011.7
20260902214529 91 290 1.0 5.0 0.00 0.00 0.00 53 1011.8
20260902213023 91 294 1.0 6.0 0.00 0.00 0.00 54 1011.7
20260902211518 92 296 3.0 9.0 0.00 0.00 0.00 55 1011.6
20260902210014 92 289 3.0 8.0 0.00 0.00 0.00 55 1011.4
20260902204510 92 292 2.0 7.0 0.00 0.00 0.00 52 1011.8
20260902203005 92 284 0.0 6.0 0.00 0.00 0.00 52 1012.0
20260902201500 91 291 1.0 6.0 0.00 0.00 0.00 53 1012.5
20260902200108 91 280 1.0 9.0 0.00 0.00 0.00 52 1012.7
20260902194622 91 298 2.0 7.0 0.00 0.00 0.00 49 1012.7
20260902193047 91 288 2.0 7.0 0.00 0.00 0.00 43 1012.9
20260902191555 91 292 3.0 8.0 0.00 0.00 0.00 49 1013.1
20260902190052 92 329 5.0 11.0 0.00 0.00 0.00 45 1013.3
20260902184534 91 330 2.0 8.0 0.00 0.00 0.00 37 1013.2
20260902183030 90 296 3.0 13.0 0.00 0.00 0.00 33 1013.3
20260902181525 90 297 4.0 9.0 0.00 0.00 0.00 21 1013.5
20260902180031 89 202 2.0 7.0 0.00 0.00 0.00 14 1013.8
20260902174518 88 292 4.0 8.0 0.00 0.00 0.00 7 1014.0
20260902173012 86 272 5.0 11.0 0.00 0.00 0.00 100 1014.2
20260902171508 85 252 4.0 11.0 0.00 0.00 0.00 100 1014.4
20260902170004 84 241 4.0 9.0 0.00 0.00 0.00 100 1014.4
20260902164603 83 232 5.0 8.0 0.00 0.00 0.00 100 1014.5
20260902163055 82 317 3.0 8.0 0.00 0.00 0.00 100 1014.7
20260902161550 80 295 3.0 10.0 0.00 0.00 0.00 100 1014.8
20260902160046 79 277 6.0 12.0 0.00 0.00 0.00 100 1014.9
20260902154542 78 252 3.0 11.0 0.00 0.00 0.00 100 1015.1
20260902153037 77 237 4.0 10.0 0.00 0.00 0.00 100 1015.3
20260902151534 76 225 3.0 12.0 0.00 0.00 0.00 100 1015.2
20260902150028 75 258 3.0 10.0 0.00 0.00 0.00 100 1015.2
20260902144525 74 230 4.0 14.0 0.00 0.00 0.00 100 1015.4
20260902143020 72 252 5.0 10.0 0.00 0.00 0.00 100 1015.3
20260902141515 71 236 3.0 8.0 0.00 0.00 0.00 100 1015.4
20260902140011 70 210 5.0 10.0 0.00 0.00 0.00 100 1015.5
20260902134509 70 228 5.0 10.0 0.00 0.00 0.00 100 1015.7
20260902133002 70 144 7.0 11.0 0.00 0.00 0.00 100 1015.9
20260902131559 70 189 1.0 4.0 0.00 0.00 0.00 100 1015.3
20260902130054 70 232 3.0 7.0 0.00 0.00 0.00 100 1015.1
20260902124550 70 157 4.0 9.0 0.00 0.00 0.00 100 1015.5
20260902123044 70 173 3.0 10.0 0.00 0.00 0.00 100 1015.3
20260902121541 70 121 3.0 6.0 0.00 0.00 0.00 100 1015.3
20260902120035 70 174 0.0 9.0 0.00 0.00 0.00 100 1014.7
20260902114533 70 135 5.0 8.0 0.00 0.00 0.00 100 1014.7
20260902113030 70 237 2.0 10.0 0.00 0.00 0.00 100 1016.0
20260902111522 72 69 9.0 21.0 0.00 0.00 0.00 100 1016.3
20260902110018 73 234 1.0 7.0 0.00 0.00 0.00 100 1014.1
20260902104515 73 250 3.0 9.0 0.00 0.00 0.00 100 1013.6
20260902103009 73 257 3.0 9.0 0.00 0.00 0.00 100 1013.6
20260902101504 73 256 3.0 7.0 0.00 0.00 0.00 100 1013.2
20260902100101 73 265 2.0 7.0 0.00 0.00 0.00 100 1013.2
20260902094557 73 284 3.0 6.0 0.00 0.00 0.00 100 1013.6
20260902093052 73 229 3.0 8.0 0.00 0.00 0.00 100 1013.4
20260902091550 73 229 1.0 6.0 0.00 0.00 0.00 100 1013.6
20260902090043 73 234 2.0 7.0 0.00 0.00 0.00 100 1013.8
20260902084541 72 243 2.0 5.0 0.00 0.00 0.00 100 1014.0
20260902083036 72 254 1.0 6.0 0.00 0.00 0.00 100 1014.1
20260902081530 72 244 2.0 4.0 0.00 0.00 0.00 100 1014.1